When you browse on this site, cookies collect data to enhance your experience and personalize the content and advertising you see.
Visit our Privacy Policy to learn more. By continuing to use the site, you agree to this use of cookies and data.
  • en France
  • Liste des pays
  • À 7 jours
  • Température de l'eau
  • Carte météo
  • Widgets météo
  • user-avatar
    Se connecter

    Météo par heure à Bük

    Ce jour, 2 Juin, Mardi

    Heure Température Précipitation Vent Pression Humidité
    00:00 +13°C° 0 mm 4 m/s 745 mmHg 80%
    01:00 +13°C° 0 mm 5 m/s 745 mmHg 78%
    02:00 +12°C° 0 mm 4 m/s 745 mmHg 81%
    03:00 +11°C° 0 mm 4 m/s 744 mmHg 83%
    04:00 +11°C° 0 mm 3 m/s 744 mmHg 85%
    05:00 +12°C° 0 mm 4 m/s 744 mmHg 79%
    06:00 +14°C° 0 mm 5 m/s 744 mmHg 73%
    07:00 +15°C° 0 mm 6 m/s 744 mmHg 67%
    08:00 +16°C° 0 mm 7 m/s 744 mmHg 62%
    09:00 +17°C° 0 mm 7 m/s 744 mmHg 58%
    10:00 +18°C° 0 mm 7 m/s 743 mmHg 54%
    11:00 +20°C° 0.3 mm 7 m/s 743 mmHg 55%
    12:00 +20°C° 0.3 mm 7 m/s 743 mmHg 56%
    13:00 +20°C° 0.3 mm 7 m/s 743 mmHg 57%
    14:00 +20°C° 0.2 mm 7 m/s 742 mmHg 56%
    15:00 +20°C° 0.2 mm 7 m/s 742 mmHg 55%
    16:00 +20°C° 0.2 mm 7 m/s 742 mmHg 54%
    17:00 +19°C° 0 mm 5 m/s 741 mmHg 60%
    18:00 +17°C° 0 mm 4 m/s 741 mmHg 65%
    19:00 +16°C° 0 mm 3 m/s 741 mmHg 71%
    20:00 +14°C° 0 mm 3 m/s 741 mmHg 74%
    21:00 +14°C° 0 mm 2 m/s 741 mmHg 78%
    22:00 +12°C° 0 mm 2 m/s 742 mmHg 81%
    23:00 +13°C° 0 mm 2 m/s 741 mmHg 81%

    Demain, 3 Juin, Mercredi

    Heure Température Précipitation Vent Pression Humidité
    00:00 +13°C° 0 mm 2 m/s 741 mmHg 80%
    01:00 +13°C° 0 mm 2 m/s 741 mmHg 80%
    02:00 +13°C° 0.1 mm 2 m/s 740 mmHg 81%
    03:00 +13°C° 0.1 mm 2 m/s 740 mmHg 82%
    04:00 +13°C° 0.1 mm 2 m/s 739 mmHg 83%
    05:00 +14°C° 0 mm 2 m/s 739 mmHg 79%
    06:00 +16°C° 0 mm 2 m/s 739 mmHg 75%
    07:00 +17°C° 0 mm 2 m/s 739 mmHg 71%
    08:00 +18°C° 0.3 mm 2 m/s 738 mmHg 67%
    09:00 +20°C° 0.3 mm 2 m/s 738 mmHg 63%
    10:00 +21°C° 0.3 mm 2 m/s 738 mmHg 60%
    11:00 +21°C° 0.7 mm 2 m/s 738 mmHg 60%
    12:00 +22°C° 0.7 mm 3 m/s 737 mmHg 60%
    13:00 +22°C° 0.7 mm 3 m/s 737 mmHg 60%
    14:00 +23°C° 0.1 mm 2 m/s 736 mmHg 58%
    15:00 +23°C° 0.1 mm 2 m/s 736 mmHg 56%
    16:00 +24°C° 0.1 mm 2 m/s 736 mmHg 54%
    17:00 +22°C° 0 mm 1 m/s 736 mmHg 60%
    18:00 +21°C° 0 mm 1 m/s 735 mmHg 66%
    19:00 +20°C° 0 mm 1 m/s 735 mmHg 72%
    20:00 +18°C° 0 mm 1 m/s 735 mmHg 75%
    21:00 +16°C° 0 mm 2 m/s 735 mmHg 79%
    22:00 +15°C° 0 mm 2 m/s 735 mmHg 82%
    23:00 +14°C° 0 mm 2 m/s 735 mmHg 86%

    Après-demain, 4 Juin, Jeudi

    Heure Température Précipitation Vent Pression Humidité
    00:00 +14°C° 0 mm 2 m/s 735 mmHg 90%
    01:00 +13°C° 0 mm 2 m/s 734 mmHg 93%
    02:00 +13°C° 0 mm 2 m/s 734 mmHg 94%
    03:00 +12°C° 0 mm 2 m/s 733 mmHg 95%
    04:00 +12°C° 0 mm 2 m/s 733 mmHg 96%
    05:00 +13°C° 0 mm 2 m/s 733 mmHg 91%
    06:00 +15°C° 0 mm 2 m/s 733 mmHg 86%
    07:00 +17°C° 0 mm 2 m/s 733 mmHg 80%
    08:00 +19°C° 0 mm 3 m/s 733 mmHg 74%
    09:00 +21°C° 0 mm 3 m/s 733 mmHg 67%
    10:00 +24°C° 0 mm 3 m/s 733 mmHg 60%
    11:00 +23°C° 0.1 mm 4 m/s 732 mmHg 59%
    12:00 +25°C° 0.1 mm 4 m/s 732 mmHg 58%
    13:00 +26°C° 0.1 mm 5 m/s 732 mmHg 56%
    14:00 +26°C° 0.2 mm 6 m/s 731 mmHg 56%
    15:00 +26°C° 0.2 mm 7 m/s 731 mmHg 56%
    16:00 +26°C° 0.2 mm 8 m/s 731 mmHg 55%
    17:00 +23°C° 0 mm 9 m/s 730 mmHg 58%
    18:00 +21°C° 0 mm 9 m/s 730 mmHg 62%
    19:00 +19°C° 0 mm 9 m/s 730 mmHg 65%
    20:00 +19°C° 0 mm 9 m/s 730 mmHg 62%
    21:00 +19°C° 0 mm 9 m/s 730 mmHg 59%
    22:00 +19°C° 0 mm 10 m/s 730 mmHg 56%
    23:00 +19°C° 0 mm 9 m/s 730 mmHg 58%

    5 Juin, Vendredi

    Heure Température Précipitation Vent Pression Humidité
    00:00 +18°C° 0 mm 7 m/s 730 mmHg 60%
    01:00 +19°C° 0 mm 6 m/s 730 mmHg 63%
    02:00 +17°C° 0.1 mm 5 m/s 730 mmHg 69%
    03:00 +17°C° 0.1 mm 4 m/s 730 mmHg 74%
    04:00 +16°C° 0.1 mm 3 m/s 730 mmHg 80%
    05:00 +16°C° 0.5 mm 3 m/s 730 mmHg 84%
    06:00 +16°C° 0.5 mm 3 m/s 730 mmHg 87%
    07:00 +14°C° 0.5 mm 3 m/s 731 mmHg 90%
    08:00 +14°C° 2.3 mm 4 m/s 731 mmHg 92%
    09:00 +13°C° 2.3 mm 4 m/s 731 mmHg 93%
    10:00 +13°C° 2.3 mm 4 m/s 731 mmHg 94%
    11:00 +13°C° 3.3 mm 3 m/s 731 mmHg 94%
    12:00 +13°C° 3.3 mm 3 m/s 731 mmHg 95%
    13:00 +13°C° 3.3 mm 3 m/s 732 mmHg 95%
    14:00 +13°C° 1.3 mm 3 m/s 732 mmHg 95%
    15:00 +13°C° 1.3 mm 4 m/s 732 mmHg 94%
    16:00 +13°C° 1.3 mm 4 m/s 732 mmHg 94%
    17:00 +12°C° 0.5 mm 5 m/s 733 mmHg 92%
    18:00 +12°C° 0.5 mm 5 m/s 733 mmHg 90%
    19:00 +12°C° 0.5 mm 5 m/s 733 mmHg 88%
    20:00 +12°C° 0.2 mm 4 m/s 734 mmHg 88%
    21:00 +12°C° 0.2 mm 3 m/s 735 mmHg 87%
    22:00 +12°C° 0.2 mm 3 m/s 735 mmHg 86%
    23:00 +12°C° 0 mm 2 m/s 736 mmHg 85%

    6 Juin, Samedi

    Heure Température Précipitation Vent Pression Humidité
    00:00 +12°C° 0 mm 2 m/s 736 mmHg 85%
    01:00 +10°C° 0 mm 2 m/s 736 mmHg 84%
    02:00 +10°C° 0 mm 2 m/s 737 mmHg 85%
    03:00 +9°C° 0 mm 2 m/s 737 mmHg 85%
    04:00 +9°C° 0 mm 2 m/s 738 mmHg 86%
    05:00 +10°C° 0 mm 2 m/s 738 mmHg 83%
    06:00 +13°C° 0 mm 2 m/s 739 mmHg 80%
    07:00 +15°C° 0 mm 2 m/s 739 mmHg 77%
    08:00 +16°C° 0 mm 3 m/s 739 mmHg 70%
    09:00 +18°C° 0 mm 4 m/s 740 mmHg 63%
    10:00 +20°C° 0 mm 4 m/s 740 mmHg 55%
    11:00 +21°C° 0 mm 5 m/s 740 mmHg 53%
    12:00 +22°C° 0 mm 5 m/s 740 mmHg 51%
    13:00 +23°C° 0 mm 5 m/s 740 mmHg 49%
    14:00 +23°C° 0 mm 5 m/s 739 mmHg 51%
    15:00 +23°C° 0 mm 6 m/s 739 mmHg 53%
    16:00 +23°C° 0 mm 6 m/s 739 mmHg 55%
    17:00 +22°C° 0 mm 5 m/s 739 mmHg 61%
    18:00 +20°C° 0 mm 5 m/s 739 mmHg 68%
    19:00 +19°C° 0 mm 4 m/s 739 mmHg 74%
    20:00 +18°C° 0 mm 4 m/s 739 mmHg 75%
    21:00 +17°C° 0 mm 4 m/s 740 mmHg 77%
    22:00 +15°C° 0 mm 4 m/s 740 mmHg 78%
    23:00 +15°C° 0 mm 4 m/s 740 mmHg 81%

    7 Juin, Dimanche

    Heure Température Précipitation Vent Pression Humidité
    00:00 +14°C° 0 mm 3 m/s 740 mmHg 85%
    01:00 +14°C° 0 mm 2 m/s 740 mmHg 88%
    02:00 +14°C° 0 mm 2 m/s 740 mmHg 90%
    03:00 +13°C° 0 mm 2 m/s 740 mmHg 92%
    04:00 +13°C° 0 mm 2 m/s 740 mmHg 93%
    05:00 +14°C° 0 mm 2 m/s 740 mmHg 88%
    06:00 +16°C° 0 mm 2 m/s 740 mmHg 84%
    07:00 +17°C° 0 mm 2 m/s 740 mmHg 79%
    08:00 +18°C° 0 mm 3 m/s 740 mmHg 75%
    09:00 +20°C° 0 mm 4 m/s 741 mmHg 72%
    10:00 +21°C° 0 mm 4 m/s 741 mmHg 68%
    11:00 +22°C° 0.5 mm 5 m/s 740 mmHg 68%
    12:00 +22°C° 0.5 mm 5 m/s 740 mmHg 69%
    13:00 +23°C° 0.5 mm 5 m/s 740 mmHg 69%
    14:00 +23°C° 1.2 mm 5 m/s 740 mmHg 70%
    15:00 +23°C° 1.2 mm 5 m/s 739 mmHg 72%
    16:00 +23°C° 1.2 mm 4 m/s 739 mmHg 73%
    17:00 +22°C° 0.9 mm 4 m/s 739 mmHg 78%
    18:00 +20°C° 0.9 mm 4 m/s 740 mmHg 84%
    19:00 +18°C° 0.9 mm 3 m/s 740 mmHg 89%
    20:00 +18°C° 0.2 mm 4 m/s 740 mmHg 90%
    21:00 +16°C° 0.2 mm 5 m/s 741 mmHg 90%
    22:00 +15°C° 0.2 mm 5 m/s 741 mmHg 91%
    23:00 +15°C° 0 mm 5 m/s 742 mmHg 90%
    Voir plus